| time (UTC) | temp F | wind direction | speed MPH | gust MPH | rain 1hr in | rain 24hr in | rain mn in | humidity % | barometer mb |
| 20260904074518 | 67 | 88 | 0.0 | 1.0 | 0.00 | 0.31 | 0.03 | 95 | 1010.8 |
| 20260904073020 | 67 | 88 | 0.0 | 1.0 | 0.00 | 0.31 | 0.03 | 94 | 1010.6 |
| 20260904071517 | 67 | 88 | 0.0 | 0.0 | 0.00 | 0.31 | 0.03 | 94 | 1010.2 |
| 20260904070035 | 67 | 88 | 0.0 | 0.0 | 0.00 | 0.31 | 0.03 | 94 | 1010.1 |
| 20260904064516 | 67 | 88 | 0.0 | 1.0 | 0.00 | 0.36 | 0.03 | 94 | 1010.2 |
| 20260904063016 | 68 | 88 | 0.0 | 0.0 | 0.00 | 0.36 | 0.03 | 94 | 1010.2 |
| 20260904061513 | 68 | 88 | 0.0 | 1.0 | 0.00 | 0.36 | 0.03 | 95 | 1010.5 |
| 20260904060012 | 68 | 88 | 0.0 | 0.0 | 0.00 | 0.36 | 0.03 | 94 | 1010.5 |
| 20260904054522 | 68 | 88 | 0.0 | 0.0 | 0.00 | 0.41 | 0.03 | 94 | 1010.6 |
| 20260904053009 | 68 | 88 | 0.0 | 1.0 | 0.01 | 0.41 | 0.03 | 94 | 1010.6 |
| 20260904051510 | 68 | 88 | 0.0 | 1.0 | 0.01 | 0.41 | 0.03 | 94 | 1010.9 |
| 20260904050014 | 68 | 88 | 0.0 | 1.0 | 0.01 | 0.41 | 0.03 | 94 | 1010.9 |
| 20260904044505 | 68 | 88 | 0.0 | 1.0 | 0.06 | 0.51 | 0.03 | 94 | 1011.1 |
| 20260904043011 | 68 | 88 | 0.0 | 1.0 | 0.05 | 0.50 | 0.02 | 94 | 1011.2 |
| 20260904041503 | 68 | 88 | 0.0 | 1.0 | 0.05 | 0.50 | 0.02 | 94 | 1011.5 |
| 20260904040001 | 68 | 88 | 0.0 | 2.0 | 0.05 | 0.50 | 0.02 | 93 | 1011.5 |
| 20260904034601 | 68 | 88 | 0.0 | 1.0 | 0.00 | 0.75 | 0.45 | 93 | 1011.6 |
| 20260904033100 | 68 | 88 | 0.0 | 0.0 | 0.00 | 0.75 | 0.45 | 93 | 1011.9 |
| 20260904031559 | 68 | 88 | 0.0 | 0.0 | 0.00 | 0.75 | 0.45 | 93 | 1012.0 |
| 20260904024600 | 68 | 88 | 0.0 | 1.0 | 0.00 | 0.78 | 0.45 | 92 | 1011.6 |
| 20260904023102 | 69 | 88 | 0.0 | 1.0 | 0.09 | 0.78 | 0.45 | 92 | 1011.6 |
| 20260904021600 | 69 | 88 | 0.0 | 2.0 | 0.15 | 0.78 | 0.45 | 92 | 1011.5 |
| 20260904020058 | 69 | 88 | 0.0 | 0.0 | 0.15 | 0.78 | 0.45 | 92 | 1012.4 |
| 20260904014558 | 70 | 88 | 1.0 | 3.0 | 0.15 | 0.78 | 0.45 | 91 | 1012.2 |
| 20260904013055 | 72 | 260 | 2.0 | 4.0 | 0.05 | 0.68 | 0.35 | 92 | 1013.4 |
| 20260904011609 | 72 | 114 | 0.0 | 1.0 | 0.00 | 0.63 | 0.30 | 91 | 1012.4 |
| 20260904010105 | 72 | 114 | 0.0 | 2.0 | 0.00 | 0.63 | 0.30 | 90 | 1012.5 |
| 20260904004556 | 72 | 114 | 0.0 | 1.0 | 0.00 | 0.63 | 0.30 | 89 | 1012.4 |
| 20260904003051 | 73 | 114 | 0.0 | 1.0 | 0.00 | 0.63 | 0.30 | 89 | 1012.4 |
| 20260904001551 | 73 | 114 | 0.0 | 1.0 | 0.00 | 0.63 | 0.30 | 88 | 1012.4 |
| 20260904000058 | 74 | 114 | 0.0 | 2.0 | 0.00 | 0.63 | 0.30 | 87 | 1012.0 |
| 20260903234550 | 74 | 114 | 0.0 | 1.0 | 0.00 | 0.63 | 0.30 | 86 | 1011.9 |
| 20260903233049 | 75 | 114 | 0.0 | 0.0 | 0.00 | 0.63 | 0.30 | 86 | 1011.9 |
| 20260903231553 | 76 | 114 | 0.0 | 1.0 | 0.00 | 0.63 | 0.30 | 84 | 1011.9 |
| 20260903230050 | 76 | 114 | 0.0 | 1.0 | 0.00 | 0.63 | 0.30 | 82 | 1012.4 |
| 20260903224548 | 77 | 114 | 0.0 | 0.0 | 0.00 | 0.63 | 0.30 | 81 | 1011.9 |
| 20260903223044 | 77 | 114 | 0.0 | 1.0 | 0.00 | 0.63 | 0.30 | 79 | 1011.7 |
| 20260903221543 | 78 | 114 | 0.0 | 2.0 | 0.00 | 0.63 | 0.30 | 79 | 1011.6 |
| 20260903220041 | 78 | 154 | 0.0 | 2.0 | 0.00 | 0.63 | 0.30 | 79 | 1012.0 |
| 20260903214543 | 78 | 154 | 0.0 | 2.0 | 0.00 | 0.63 | 0.30 | 77 | 1011.9 |
| 20260903213049 | 78 | 211 | 0.0 | 3.0 | 0.00 | 0.63 | 0.30 | 76 | 1011.7 |
| 20260903211537 | 79 | 164 | 0.0 | 3.0 | 0.00 | 0.63 | 0.30 | 75 | 1011.5 |
| 20260903210035 | 79 | 118 | 0.0 | 3.0 | 0.00 | 0.63 | 0.30 | 75 | 1011.7 |
| 20260903204533 | 80 | 167 | 1.0 | 3.0 | 0.00 | 0.63 | 0.30 | 74 | 1011.7 |
| 20260903203045 | 80 | 178 | 0.0 | 3.0 | 0.00 | 0.63 | 0.30 | 74 | 1011.8 |
| 20260903201535 | 80 | 246 | 0.0 | 4.0 | 0.00 | 0.63 | 0.30 | 74 | 1011.9 |
| 20260903200027 | 80 | 131 | 0.0 | 4.0 | 0.00 | 0.63 | 0.30 | 72 | 1012.2 |
| 20260903194526 | 80 | 162 | 1.0 | 3.0 | 0.00 | 0.63 | 0.30 | 74 | 1012.1 |
| 20260903193034 | 81 | 284 | 1.0 | 4.0 | 0.00 | 0.63 | 0.30 | 69 | 1012.2 |
| 20260903191524 | 80 | 147 | 1.0 | 4.0 | 0.00 | 0.63 | 0.30 | 70 | 1012.4 |
| 20260903190022 | 81 | 250 | 2.0 | 4.0 | 0.00 | 0.63 | 0.30 | 69 | 1012.6 |
| 20260903184520 | 81 | 338 | 0.0 | 4.0 | 0.00 | 0.63 | 0.30 | 69 | 1012.7 |
| 20260903183019 | 81 | 103 | 2.0 | 5.0 | 0.00 | 0.63 | 0.30 | 68 | 1012.9 |
| 20260903181518 | 81 | 306 | 1.0 | 4.0 | 0.00 | 0.63 | 0.30 | 68 | 1013.0 |
| 20260903180022 | 80 | 273 | 1.0 | 7.0 | 0.00 | 0.63 | 0.30 | 71 | 1013.2 |
| 20260903174513 | 80 | 188 | 0.0 | 6.0 | 0.00 | 0.63 | 0.30 | 72 | 1013.1 |
| 20260903173012 | 79 | 304 | 1.0 | 5.0 | 0.00 | 0.63 | 0.30 | 70 | 1013.3 |
| 20260903171511 | 80 | 219 | 1.0 | 5.0 | 0.00 | 0.63 | 0.30 | 69 | 1013.4 |
| 20260903170016 | 79 | 244 | 1.0 | 4.0 | 0.00 | 0.63 | 0.30 | 73 | 1013.4 |
| 20260903164509 | 78 | 275 | 0.0 | 3.0 | 0.00 | 0.64 | 0.30 | 78 | 1013.6 |
| 20260903163002 | 76 | 192 | 2.0 | 5.0 | 0.00 | 0.64 | 0.30 | 79 | 1013.9 |
| 20260903161600 | 75 | 165 | 1.0 | 5.0 | 0.00 | 0.64 | 0.30 | 81 | 1014.2 |
| 20260903160058 | 74 | 281 | 2.0 | 5.0 | 0.00 | 0.64 | 0.30 | 83 | 1014.5 |
| 20260903154557 | 73 | 176 | 1.0 | 3.0 | 0.00 | 0.64 | 0.30 | 88 | 1014.4 |
| 20260903153050 | 69 | 184 | 0.0 | 3.0 | 0.00 | 0.64 | 0.30 | 95 | 1014.5 |
| 20260903151547 | 68 | 151 | 1.0 | 3.0 | 0.00 | 0.64 | 0.30 | 95 | 1014.5 |
| 20260903150047 | 68 | 86 | 0.0 | 3.0 | 0.00 | 0.64 | 0.30 | 95 | 1014.8 |
| 20260903144547 | 67 | 220 | 0.0 | 4.0 | 0.00 | 0.64 | 0.30 | 95 | 1015.2 |
| 20260903143048 | 67 | 217 | 1.0 | 6.0 | 0.00 | 0.64 | 0.30 | 95 | 1015.1 |
| 20260903141544 | 67 | 355 | 1.0 | 3.0 | 0.00 | 0.64 | 0.30 | 96 | 1015.1 |
| 20260903140046 | 67 | 204 | 1.0 | 3.0 | 0.00 | 0.64 | 0.30 | 96 | 1014.8 |
| 20260903134541 | 67 | 262 | 1.0 | 3.0 | 0.00 | 0.64 | 0.30 | 96 | 1014.6 |
| 20260903133045 | 67 | 63 | 0.0 | 4.0 | 0.00 | 0.64 | 0.30 | 97 | 1014.4 |
| 20260903131539 | 67 | 163 | 0.0 | 3.0 | 0.00 | 0.64 | 0.30 | 97 | 1014.3 |
| 20260903130043 | 66 | 175 | 1.0 | 2.0 | 0.00 | 0.64 | 0.30 | 97 | 1014.4 |
| 20260903124537 | 66 | 200 | 0.0 | 2.0 | 0.00 | 0.64 | 0.30 | 97 | 1014.2 |
| 20260903123035 | 66 | 204 | 0.0 | 1.0 | 0.00 | 0.64 | 0.30 | 97 | 1014.2 |
| 20260903121537 | 66 | 204 | 0.0 | 2.0 | 0.00 | 0.64 | 0.30 | 97 | 1013.8 |
| 20260903120050 | 65 | 204 | 0.0 | 2.0 | 0.00 | 0.64 | 0.30 | 96 | 1013.9 |
| 20260903114531 | 65 | 204 | 0.0 | 2.0 | 0.00 | 0.64 | 0.30 | 96 | 1014.2 |
| 20260903113057 | 65 | 204 | 0.0 | 2.0 | 0.00 | 0.64 | 0.30 | 96 | 1014.1 |
| 20260903111529 | 65 | 204 | 0.0 | 2.0 | 0.00 | 0.64 | 0.30 | 96 | 1013.3 |
| 20260903110028 | 65 | 204 | 1.0 | 2.0 | 0.01 | 0.64 | 0.30 | 96 | 1014.0 |
| 20260903104542 | 65 | 204 | 0.0 | 2.0 | 0.01 | 0.64 | 0.30 | 96 | 1014.6 |
| 20260903103031 | 65 | 204 | 0.0 | 2.0 | 0.01 | 0.64 | 0.30 | 96 | 1014.9 |
| 20260903101528 | 65 | 138 | 1.0 | 2.0 | 0.01 | 0.64 | 0.30 | 96 | 1015.1 |
| 20260903100033 | 64 | 193 | 0.0 | 2.0 | 0.00 | 0.63 | 0.28 | 96 | 1015.0 |
| 20260903094542 | 64 | 193 | 0.0 | 1.0 | 0.00 | 0.63 | 0.28 | 96 | 1015.2 |
| 20260903093023 | 64 | 193 | 0.0 | 2.0 | 0.00 | 0.63 | 0.28 | 96 | 1015.0 |
| 20260903091533 | 64 | 193 | 0.0 | 2.0 | 0.00 | 0.63 | 0.28 | 96 | 1014.5 |
| 20260903090022 | 64 | 221 | 1.0 | 3.0 | 0.00 | 0.63 | 0.28 | 96 | 1014.3 |
| 20260903084520 | 64 | 177 | 0.0 | 2.0 | 0.00 | 0.63 | 0.28 | 96 | 1014.4 |
| 20260903083018 | 64 | 177 | 0.0 | 1.0 | 0.01 | 0.63 | 0.28 | 96 | 1014.5 |
| 20260903081518 | 64 | 177 | 0.0 | 1.0 | 0.04 | 0.63 | 0.28 | 96 | 1014.6 |
| 20260903080018 | 64 | 177 | 0.0 | 2.0 | 0.08 | 0.63 | 0.28 | 96 | 1014.8 |